This is the latest recevied weather packets stored in our database for station/object SR6WXP. If no packets are shown the sender has not sent any weather packets the latest 1 day(s).
| Time | Temp. | Humidity | Pressure | Rain* | Wind** | Luminosity | Snow |
|---|---|---|---|---|---|---|---|
| 1777982070 | 22.78° C | 38% | 984 hPa | - | 3.13 m/s, 180° | - | - |
| 1777981915 | 22.78° C | 38% | 984.1 hPa | - | 4.02 m/s, 169° | - | - |
| 1777981830 | 22.78° C | 38% | 984.1 hPa | - | 4.02 m/s, 169° | - | - |
| 1777981590 | 22.78° C | 38% | 984.1 hPa | - | 3.13 m/s, 161° | - | - |
| 1777981359 | 22.78° C | 38% | 984.1 hPa | - | 3.58 m/s, 150° | - | - |
| 1777981110 | 22.78° C | 38% | 984.1 hPa | - | 3.58 m/s, 145° | - | - |
| 1777980868 | 22.78° C | 38% | 984.1 hPa | - | 2.68 m/s, 141° | - | - |
| 1777980628 | 22.78° C | 38% | 984.2 hPa | - | 2.68 m/s, 135° | - | - |
| 1777980575 | 22.78° C | 38% | 984.2 hPa | - | 3.13 m/s, 153° | - | - |
| 1777980387 | 22.78° C | 38% | 984.2 hPa | - | 3.13 m/s, 153° | - | - |
| 1777980147 | 22.78° C | 38% | 984.2 hPa | - | 4.02 m/s, 134° | - | - |
| 1777979907 | 22.78° C | 38% | 984.3 hPa | - | 2.24 m/s, 149° | - | - |
| 1777979665 | 22.78° C | 38% | 984.3 hPa | - | 2.24 m/s, 149° | - | - |
| 1777979425 | 22.78° C | 38% | 984.3 hPa | - | 2.24 m/s, 151° | - | - |
| 1777979186 | 22.78° C | 38% | 984.3 hPa | - | 2.24 m/s, 136° | - | - |
| 1777978943 | 22.78° C | 38% | 984.3 hPa | - | 2.68 m/s, 145° | - | - |
| 1777978703 | 22.78° C | 38% | 984.4 hPa | - | 3.13 m/s, 132° | - | - |
| 1777978461 | 22.78° C | 37% | 984.4 hPa | - | 2.68 m/s, 170° | - | - |
| 1777978221 | 22.22° C | 37% | 984.4 hPa | - | 3.13 m/s, 172° | - | - |
| 1777977981 | 22.22° C | 37% | 984.5 hPa | - | 2.68 m/s, 191° | - | - |
| 1777977741 | 22.22° C | 37% | 984.6 hPa | - | 3.58 m/s, 170° | - | - |
| 1777977501 | 22.22° C | 38% | 984.6 hPa | - | 2.24 m/s, 172° | - | - |
| 1777977259 | 22.22° C | 37% | 984.6 hPa | - | 2.68 m/s, 128° | - | - |
| 1777977019 | 22.22° C | 37% | 984.6 hPa | - | 3.13 m/s, 121° | - | - |
| 1777976779 | 22.22° C | 37% | 984.7 hPa | - | 2.68 m/s, 146° | - | - |
* Rain since midnight (hover to see other rain measurements)
** Current wind speed in m/s (hover to see current wind gust speed)